Date String (YYYY-MM-DD hh:mm:ss) UTC,Instrument flags,Ambient pressure (hPa),Sample flow (lpm),Bypass flow (lpm),Sample temperature (°C),Ambient temperature (°C),ASC tube jacket temperature (°C),LED temperature (°C),Box temperature (°C),Sample RH (%),Span deviation,Mass concentration (μg/m³),Mass concentration (μg/m³),Mass concentration (μg/m³)
DateTimeUTC,F1_M11,P_M11,Q1_M11,Q2_M11,T1_M11,T2_M11,T3_M11,T4_M11,T5_M11,U1_M11,ZSPAN_M11,X0_M11,X2_M11,X1_M11
2022-12-12 11:00:00,,0812.8,5.00,0.00,24.0,22.5,00.0,32.9,25.7,06.9,0000.0,0007.44,0003.77,0003.42
2022-12-12 11:01:00,,0812.8,5.00,0.00,24.0,22.5,00.0,32.9,25.8,06.9,0000.0,0007.11,0003.75,0003.40
2022-12-12 11:02:00,,0812.8,5.00,0.00,24.0,22.5,00.0,32.9,25.8,06.9,0000.0,0006.53,0003.74,0003.41
2022-12-12 11:03:00,,0812.8,5.00,0.00,24.0,22.5,00.0,32.9,25.8,06.9,0000.0,0006.56,0003.74,0003.41
2022-12-12 11:04:00,,0812.8,5.00,0.00,24.0,22.5,00.0,32.9,25.9,06.9,0000.0,0006.76,0003.77,0003.40
2022-12-12 11:05:00,,0812.7,5.00,0.00,24.0,22.5,00.0,32.9,25.9,06.9,0000.0,0006.72,0003.73,0003.35
2022-12-12 11:06:00,,0812.7,5.00,0.00,24.0,22.5,00.0,32.9,25.9,06.8,0000.0,0006.32,0003.63,0003.27
2022-12-12 11:07:00,,0812.6,5.00,0.00,24.0,22.5,00.0,32.9,25.8,06.8,0000.0,0005.50,0003.54,0003.21
2022-12-12 11:08:00,,0812.6,5.00,0.00,24.0,22.5,00.0,32.9,25.7,06.9,0000.0,0005.42,0003.48,0003.16
2022-12-12 11:09:00,,0812.7,5.00,0.00,24.0,22.5,00.0,32.9,25.8,06.9,0000.0,0005.30,0003.45,0003.14
2022-12-12 11:10:00,,0812.6,5.00,0.00,24.0,22.5,00.0,32.9,25.8,06.9,0000.0,0005.50,0003.47,0003.14
2022-12-12 11:11:00,,0812.6,5.01,0.00,24.0,22.5,00.0,32.9,25.7,06.9,0000.0,0005.52,0003.47,0003.13
2022-12-12 11:12:00,,0812.6,4.99,0.00,24.0,22.5,00.0,32.9,25.8,06.8,0000.0,0005.46,0003.45,0003.10
2022-12-12 11:13:00,,0812.6,5.01,0.00,24.0,22.5,00.0,32.9,25.8,06.8,0000.0,0005.51,0003.44,0003.04
2022-12-12 11:14:00,,0812.6,5.01,0.00,24.0,22.5,00.0,32.9,25.8,06.8,0000.0,0005.57,0003.41,0003.00
2022-12-12 11:15:00,,0812.6,5.00,0.00,24.0,22.5,00.0,32.9,25.8,06.8,0000.0,0005.49,0003.34,0002.95
2022-12-12 11:16:00,,0812.6,4.99,0.00,24.0,22.5,00.0,32.9,25.7,07.2,0000.0,0005.82,0003.45,0003.09
2022-12-12 11:17:00,,0812.6,5.00,0.00,24.0,22.5,00.0,32.9,25.7,07.2,0000.0,0007.31,0003.60,0003.23
2022-12-12 11:18:00,,0812.6,4.99,0.00,24.0,22.4,00.0,32.9,25.6,07.1,0000.0,0008.58,0003.70,0003.32
2022-12-12 11:19:00,,0812.5,5.00,0.00,24.0,22.4,00.0,32.9,25.6,07.1,0000.0,0008.77,0003.77,0003.38
2022-12-12 11:20:00,,0812.5,5.01,0.00,23.9,22.4,00.0,32.9,25.6,07.1,0000.0,0008.97,0003.85,0003.43
2022-12-12 11:21:00,,0812.5,5.01,0.00,23.9,22.4,00.0,32.9,25.6,06.9,0000.0,0009.09,0003.86,0003.44
2022-12-12 11:22:00,,0812.5,4.99,0.00,23.9,22.4,00.0,32.9,25.7,06.8,0000.0,0009.42,0003.86,0003.43
2022-12-12 11:23:00,,0812.5,4.99,0.00,24.0,22.5,00.0,32.9,25.7,06.8,0000.0,0009.58,0003.87,0003.44
2022-12-12 11:24:00,,0812.5,4.99,0.00,24.0,22.5,00.0,32.9,25.7,06.8,0000.0,0009.73,0003.88,0003.45
2022-12-12 11:25:00,,0812.5,5.00,0.00,24.0,22.5,00.0,32.9,25.8,06.8,0000.0,0010.31,0003.90,0003.48
2022-12-12 11:26:00,,0812.5,5.01,0.00,24.0,22.5,00.0,32.9,25.8,06.7,0000.0,0010.42,0003.91,0003.48
2022-12-12 11:27:00,,0812.5,5.01,0.00,24.0,22.5,00.0,32.9,25.9,06.6,0000.0,0010.27,0003.78,0003.38
2022-12-12 11:28:00,,0812.5,5.00,0.00,24.0,22.5,00.0,32.9,25.9,06.6,0000.0,0009.54,0003.60,0003.23
2022-12-12 11:29:00,,0812.5,4.99,0.00,24.0,22.5,00.0,32.9,25.9,06.7,0000.0,0008.44,0003.48,0003.12
2022-12-12 11:30:00,,0812.5,4.99,0.00,24.0,22.4,00.0,32.9,25.9,06.7,0000.0,0008.32,0003.38,0002.94
2022-12-12 11:31:00,,0812.5,5.01,0.00,23.9,22.4,00.0,32.8,25.9,06.7,0000.0,0008.16,0003.26,0002.76
2022-12-12 11:32:00,,0812.5,5.00,0.00,23.9,22.4,00.0,32.8,25.8,06.7,0000.0,0008.25,0003.18,0002.65
2022-12-12 11:33:00,,0812.5,5.00,0.00,23.9,22.4,00.0,32.8,25.7,07.2,0000.0,0008.14,0003.19,0002.62
2022-12-12 11:34:00,,0812.5,5.00,0.00,23.9,22.4,00.0,32.8,25.6,07.7,0000.0,0008.14,0003.23,0002.67
2022-12-12 11:35:00,,0812.5,5.00,0.00,23.9,22.4,00.0,32.8,25.6,07.3,0000.0,0008.00,0003.24,0002.71
2022-12-12 11:36:00,,0812.5,4.99,0.00,23.9,22.4,00.0,32.8,25.6,07.1,0000.0,0007.38,0003.24,0002.72
2022-12-12 11:37:00,,0812.5,4.99,0.00,23.9,22.3,00.0,32.8,25.5,07.2,0000.0,0007.28,0003.30,0002.79
2022-12-12 11:38:00,,0812.4,5.01,0.00,23.8,22.3,00.0,32.8,25.5,07.1,0000.0,0007.29,0003.37,0002.91
2022-12-12 11:39:00,,0812.4,5.00,0.00,23.8,22.3,00.0,32.8,25.5,07.1,0000.0,0007.52,0003.43,0002.99
2022-12-12 11:40:00,,0812.4,4.99,0.00,23.8,22.3,00.0,32.8,25.5,07.0,0000.0,0007.28,0003.46,0003.03
2022-12-12 11:41:00,,0812.4,5.01,0.00,23.8,22.3,00.0,32.8,25.5,07.0,0000.0,0007.16,0003.49,0003.11
2022-12-12 11:42:00,,0812.4,5.01,0.00,23.8,22.3,00.0,32.8,25.5,06.9,0000.0,0007.15,0003.53,0003.14
2022-12-12 11:43:00,,0812.5,4.99,0.00,23.8,22.3,00.0,32.7,25.6,06.9,0000.0,0006.79,0003.57,0003.17
2022-12-12 11:44:00,,0812.5,4.99,0.00,23.8,22.2,00.0,32.7,25.6,06.8,0000.0,0006.35,0003.54,0003.16
2022-12-12 11:45:00,,0812.5,5.01,0.00,23.8,22.2,00.0,32.7,25.6,06.8,0000.0,0006.91,0003.47,0003.07
2022-12-12 11:46:00,,0812.5,5.01,0.00,23.8,22.1,00.0,32.7,25.5,06.7,0000.0,0007.30,0003.46,0002.98
2022-12-12 11:47:00,,0812.4,5.01,0.00,23.7,22.1,00.0,32.7,25.5,06.8,0000.0,0007.25,0003.46,0002.92
2022-12-12 11:48:00,,0812.4,4.99,0.00,23.7,22.1,00.0,32.7,25.4,06.8,0000.0,0007.00,0003.39,0002.85
2022-12-12 11:49:00,,0812.4,4.99,0.00,23.7,22.2,00.0,32.7,25.5,06.9,0000.0,0006.86,0003.34,0002.78
2022-12-12 11:50:00,,0812.4,4.99,0.00,23.7,22.2,00.0,32.7,25.5,06.9,0000.0,0006.57,0003.31,0002.76
2022-12-12 11:51:00,,0812.4,5.01,0.00,23.7,22.2,00.0,32.7,25.5,06.8,0000.0,0006.89,0003.30,0002.75
2022-12-12 11:52:00,,0812.4,5.01,0.00,23.7,22.2,00.0,32.7,25.5,06.8,0000.0,0007.19,0003.28,0002.69
2022-12-12 11:53:00,,0812.3,4.99,0.00,23.7,22.1,00.0,32.6,25.5,06.7,0000.0,0007.06,0003.26,0002.65
2022-12-12 11:54:00,,0812.3,4.99,0.00,23.7,22.0,00.0,32.6,25.5,06.7,0000.0,0006.92,0003.23,0002.60
2022-12-12 11:55:00,,0812.3,4.99,0.00,23.7,22.0,00.0,32.6,25.5,06.7,0000.0,0006.82,0003.21,0002.59
2022-12-12 11:56:00,,0812.3,5.01,0.00,23.7,22.0,00.0,32.6,25.5,06.8,0000.0,0006.33,0003.19,0002.58
2022-12-12 11:57:00,,0812.3,5.01,0.00,23.6,21.9,00.0,32.6,25.5,06.7,0000.0,0005.80,0003.18,0002.58
2022-12-12 11:58:00,,0812.3,5.01,0.00,23.6,21.9,00.0,32.6,25.5,06.8,0000.0,0007.37,0003.16,0002.57
2022-12-12 11:59:00,,0812.3,5.00,0.00,23.6,22.0,00.0,32.6,25.5,06.8,0000.0,0007.39,0003.15,0002.55
